FW6562 Weather Reports


time (UTC)temp
C
wind
direction
speed
KPH
gust
KPH
rain 1hr
cm
rain 24hr
cm
rain mn
cm
humidity
%
barometer
mb
20260505181203 14 184 0.0 1.6 0.00 0.23 0.23 85 1013.0
20260505180704 14 183 0.0 1.6 0.00 0.23 0.23 85 1013.0
20260505175203 14 184 0.0 3.2 0.00 0.23 0.23 86 1013.0
20260505174704 14 184 1.6 1.6 0.00 0.23 0.23 85 1013.0
20260505174204 14 183 1.6 3.2 0.00 0.23 0.23 85 1013.0
20260505173204 14 184 3.2 8.0 0.00 0.23 0.23 85 1013.1
20260505172703 14 174 4.8 8.0 0.00 0.23 0.23 85 1013.1
20260505171704 14 164 4.8 9.7 0.00 0.23 0.23 85 1013.1
20260505171203 15 166 4.8 9.7 0.00 0.23 0.23 83 1013.1
20260505170203 15 166 4.8 9.7 0.00 0.23 0.23 83 1013.2
20260505165704 15 180 3.2 9.7 0.00 0.23 0.23 83 1013.2
20260505165204 15 176 3.2 9.7 0.00 0.23 0.23 82 1013.2
20260505164704 15 170 3.2 8.0 0.00 0.23 0.23 82 1013.3
20260505163705 15 184 3.2 8.0 0.00 0.23 0.23 82 1013.4
20260505163203 15 167 3.2 9.7 0.00 0.23 0.23 82 1013.4
20260505162204 15 184 3.2 9.7 0.00 0.23 0.23 80 1013.3
20260505161705 15 184 3.2 9.7 0.00 0.23 0.23 80 1013.2
20260505161204 15 180 3.2 9.7 0.00 0.23 0.23 80 1013.2
20260505160704 15 175 1.6 8.0 0.00 0.23 0.23 79 1013.2
20260505160206 15 175 1.6 9.7 0.00 0.23 0.23 79 1013.2
20260505153204 15 192 3.2 8.0 0.00 0.23 0.23 80 1013.3
20260505152704 15 187 0.0 4.8 0.00 0.23 0.23 80 1013.3
20260505152204 15 183 0.0 8.0 0.00 0.23 0.23 79 1013.3
20260505151703 15 184 3.2 3.2 0.00 0.23 0.23 79 1013.3
20260505151205 15 26 3.2 4.8 0.00 0.23 0.23 80 1013.3
20260505150703 15 13 0.0 8.0 0.00 0.23 0.23 80 1013.4
20260505140205 14 325 0.0 3.2 0.00 0.23 0.23 84 1013.9
20260505130204 13 317 0.0 3.2 0.00 0.23 0.23 87 1014.2
20260505124706 13 332 0.0 3.2 0.00 0.23 0.23 87 1014.3
20260505124204 13 313 0.0 3.2 0.00 0.23 0.23 88 1014.3
20260505123704 13 30 0.0 3.2 0.00 0.23 0.23 88 1014.4
20260505121704 12 322 0.0 3.2 0.00 0.23 0.23 89 1014.4
20260505121204 12 341 0.0 3.2 0.00 0.23 0.23 90 1014.4
20260505120704 12 311 0.0 3.2 0.00 0.23 0.23 91 1014.5
20260505120205 12 324 0.0 3.2 0.00 0.23 0.23 91 1014.6
20260505115704 12 314 0.0 1.6 0.00 0.23 0.23 92 1014.6
20260505114704 12 311 0.0 3.2 0.00 0.23 0.23 92 1014.6
20260505114204 12 317 0.0 3.2 0.00 0.23 0.23 93 1014.6
20260505113703 12 315 0.0 3.2 0.00 0.23 0.23 93 1014.6
20260505113204 12 307 0.0 3.2 0.00 0.23 0.23 93 1014.6
20260505112704 12 344 0.0 1.6 0.00 0.23 0.23 93 1014.6
20260505112204 12 332 0.0 3.2 0.00 0.23 0.23 93 1014.6
20260505111705 12 319 0.0 0.0 0.00 0.23 0.23 93 1014.7
20260505111204 12 319 0.0 0.0 0.00 0.23 0.23 93 1014.7
20260505110704 12 317 0.0 1.6 0.00 0.23 0.23 92 1014.8
20260505110204 12 320 0.0 1.6 0.00 0.23 0.23 92 1014.8
20260505102204 12 330 0.0 1.6 0.00 0.23 0.23 93 1015.0
20260505101705 12 337 0.0 0.0 0.00 0.23 0.23 93 1015.0
20260505101204 12 337 0.0 0.0 0.00 0.23 0.23 94 1015.0
20260505100204 12 337 0.0 0.0 0.03 0.23 0.23 94 1015.0
20260505095704 12 334 0.0 1.6 0.03 0.23 0.23 94 1015.0
20260505095204 11 232 0.0 1.6 0.03 0.23 0.23 94 1015.0
20260505094703 11 307 0.0 3.2 0.03 0.23 0.23 94 1014.9
20260505093204 11 355 0.0 0.0 0.03 0.23 0.23 93 1014.8
20260505092704 11 169 0.0 3.2 0.03 0.23 0.23 94 1014.8
20260505092204 11 55 0.0 1.6 0.03 0.23 0.23 94 1014.9
20260505091704 11 313 0.0 0.0 0.05 0.23 0.23 94 1014.9
20260505091204 11 314 0.0 0.0 0.05 0.23 0.23 93 1014.9
20260505090704 11 316 0.0 0.0 0.05 0.23 0.23 93 1014.8
20260505090204 11 316 0.0 0.0 0.03 0.20 0.20 93 1014.7
20260505084704 11 308 0.0 0.0 0.03 0.20 0.20 94 1014.7
20260505083705 11 311 0.0 0.0 0.03 0.20 0.20 93 1014.6
20260505083204 11 308 0.0 0.0 0.03 0.20 0.20 94 1014.6
20260505082704 11 306 0.0 1.6 0.08 0.20 0.20 94 1014.6
20260505082204 11 343 0.0 1.6 0.08 0.20 0.20 93 1014.5
20260505081704 11 5 0.0 1.6 0.05 0.18 0.18 93 1014.5
20260505081204 11 4 0.0 3.2 0.05 0.18 0.18 93 1014.5
20260505080704 11 17 0.0 0.0 0.08 0.18 0.18 93 1014.5
20260505075705 11 348 0.0 3.2 0.10 0.18 0.18 92 1014.5
20260505075204 11 9 0.0 4.8 0.10 0.18 0.18 93 1014.5
20260505074704 11 350 0.0 0.0 0.10 0.18 0.18 93 1014.4
20260505074206 11 42 0.0 3.2 0.13 0.18 0.18 92 1014.4
20260505073704 11 21 1.6 3.2 0.13 0.18 0.18 92 1014.5
20260505072704 11 40 1.6 8.0 0.08 0.13 0.13 92 1014.6
20260505072204 11 3 1.6 1.6 0.08 0.13 0.13 92 1014.5
20260505071704 11 15 3.2 8.0 0.08 0.13 0.13 92 1014.4
20260505071204 11 44 3.2 8.0 0.08 0.13 0.13 92 1014.4
20260505070704 11 49 6.4 11.3 0.05 0.10 0.10 91 1014.4
20260505065704 11 33 8.0 11.3 0.03 0.08 0.08 90 1014.4
20260505065204 11 22 8.0 14.5 0.03 0.08 0.08 90 1014.3
20260505064205 12 28 3.2 11.3 0.00 0.05 0.05 89 1014.3
20260505063705 12 43 3.2 11.3 0.00 0.05 0.05 89 1014.2
20260505063204 12 30 3.2 8.0 0.00 0.05 0.05 89 1014.1
20260505062704 12 27 0.0 11.3 0.00 0.05 0.05 88 1014.1
20260505062204 12 61 0.0 3.2 0.00 0.05 0.05 89 1014.0
20260505061704 12 325 0.0 3.2 0.00 0.05 0.05 89 1014.0
20260505060704 11 328 0.0 3.2 0.00 0.05 0.05 90 1014.0
20260505060204 11 317 0.0 3.2 0.00 0.05 0.05 90 1014.0
20260505055204 11 340 0.0 3.2 0.00 0.05 0.05 91 1013.9
20260505054704 11 316 0.0 3.2 0.03 0.05 0.05 91 1013.9
20260505054204 11 324 0.0 3.2 0.03 0.05 0.05 91 1013.9
20260505053204 11 315 0.0 3.2 0.03 0.05 0.05 92 1013.9
20260505052704 11 322 0.0 4.8 0.03 0.05 0.05 91 1013.9
20260505052205 11 324 0.0 3.2 0.03 0.05 0.05 91 1014.0
20260505051704 11 317 0.0 3.2 0.03 0.05 0.05 91 1014.1
20260505051204 11 317 0.0 3.2 0.03 0.05 0.05 91 1014.1
20260505050704 11 328 0.0 3.2 0.03 0.05 0.05 91 1014.2
20260505050204 11 315 0.0 3.2 0.03 0.05 0.05 91 1014.3
20260505041704 12 159 0.0 0.0 0.03 0.03 0.03 91 1014.6
20260505041204 12 159 0.0 0.0 0.03 0.03 0.03 91 1014.6
20260505040704 12 159 3.2 1.6 0.03 0.03 0.03 91 1014.7
20260505040204 12 356 3.2 0.0 0.03 0.03 0.03 91 1014.8
20260505035204 12 194 3.2 9.7 0.00 0.00 0.00 91 1014.8
20260505034704 12 194 4.8 11.3 0.00 0.00 0.00 91 1014.8
20260505034204 12 189 4.8 8.0 0.00 0.00 0.00 91 1014.8
20260505033704 12 177 0.0 12.9 0.00 0.00 0.00 90 1014.8
20260505033204 12 194 0.0 9.7 0.00 0.00 0.00 90 1014.8
20260505032704 12 285 3.2 3.2 0.00 0.00 0.00 90 1014.8
20260505032205 12 241 3.2 4.8 0.00 0.00 0.00 90 1014.9
20260505031704 12 129 4.8 4.8 0.00 0.00 0.00 89 1014.9
20260505030704 12 163 4.8 9.7 0.00 0.00 0.00 89 1014.9
20260505030204 12 194 4.8 11.3 0.00 0.00 0.00 88 1014.9
20260505025704 12 201 1.6 11.3 0.00 0.00 0.00 88 1014.9
20260505024705 12 296 6.4 3.2 0.00 0.00 0.00 87 1014.9
20260505024204 12 171 8.0 8.0 0.00 0.00 0.00 86 1014.9
20260505023705 13 197 3.2 11.3 0.00 0.00 0.00 86 1014.9
20260505023204 13 164 3.2 12.9 0.00 0.00 0.00 84 1014.9
20260505022704 13 196 0.0 12.9 0.00 0.00 0.00 83 1014.9
20260505022204 13 193 0.0 8.0 0.00 0.00 0.00 82 1014.9
20260505021704 13 212 0.0 1.6 0.00 0.00 0.00 82 1014.9
20260505021204 13 212 0.0 3.2 0.00 0.00 0.00 81 1014.9
20260505020704 13 321 0.0 1.6 0.00 0.00 0.00 81 1014.9
20260505020204 13 324 0.0 0.0 0.00 0.00 0.00 81 1014.8
20260505015704 13 324 0.0 0.0 0.00 0.00 0.00 80 1014.8
20260505015204 13 322 0.0 1.6 0.00 0.00 0.00 80 1014.9
20260505014705 13 325 0.0 3.2 0.00 0.00 0.00 80 1014.9
20260505014204 13 306 0.0 3.2 0.00 0.00 0.00 80 1014.9
20260505013205 13 317 0.0 3.2 0.00 0.00 0.00 81 1014.9
20260505012704 13 336 3.2 0.0 0.00 0.00 0.00 82 1014.9
20260505012204 13 329 3.2 3.2 0.00 0.00 0.00 82 1015.1
20260505011704 13 11 1.6 9.7 0.00 0.00 0.00 82 1015.2
20260505011204 13 343 1.6 9.7 0.00 0.00 0.00 83 1015.2
20260505010705 13 321 6.4 3.2 0.00 0.00 0.00 83 1015.3
20260505005704 13 322 0.0 12.9 0.00 0.00 0.00 84 1015.4
20260505005204 13 318 0.0 12.9 0.00 0.00 0.00 84 1015.6
20260505004704 13 304 0.0 3.2 0.00 0.00 0.00 84 1015.8
20260505004204 13 282 0.0 3.2 0.00 0.00 0.00 83 1015.8
20260505003704 13 314 0.0 1.6 0.00 0.00 0.00 83 1016.1
20260505003204 13 310 0.0 1.6 0.00 0.00 0.00 82 1016.3
20260505001704 13 339 0.0 1.6 0.00 0.00 0.00 79 1016.6
20260505001204 13 137 0.0 3.2 0.00 0.00 0.00 78 1016.6
20260505000205 13 347 0.0 3.2 0.00 0.00 0.00 75 1016.8
20260504235206 13 309 0.0 0.0 0.00 0.00 0.00 74 1016.8
20260504234704 14 310 0.0 0.0 0.00 0.00 0.00 74 1016.8
20260504234204 14 311 0.0 3.2 0.00 0.00 0.00 72 1016.8
20260504233204 14 310 0.0 0.0 0.00 0.00 0.00 73 1016.8
20260504232704 14 310 0.0 0.0 0.00 0.00 0.00 73 1016.8
20260504232204 14 309 0.0 1.6 0.00 0.00 0.00 72 1017.0
20260504231704 14 325 0.0 3.2 0.00 0.00 0.00 72 1017.2
20260504230704 14 346 0.0 3.2 0.00 0.00 0.00 73 1017.3
20260504230204 14 293 0.0 0.0 0.00 0.00 0.00 74 1017.4
20260504225204 14 293 0.0 0.0 0.00 0.00 0.00 74 1017.4
20260504224704 14 293 0.0 0.0 0.00 0.00 0.00 74 1017.3
20260504224204 14 293 0.0 0.0 0.00 0.00 0.00 73 1017.3
20260504222704 14 292 0.0 0.0 0.00 0.00 0.00 72 1017.4
20260504222204 14 291 0.0 0.0 0.00 0.00 0.00 72 1017.5
20260504221705 14 290 0.0 1.6 0.00 0.00 0.00 72 1017.6
20260504221205 14 324 0.0 0.0 0.00 0.00 0.00 72 1017.6
20260504220704 14 324 0.0 0.0 0.00 0.00 0.00 73 1017.7
20260504215704 14 324 0.0 0.0 0.00 0.00 0.00 73 1017.9
20260504215204 15 324 0.0 0.0 0.00 0.00 0.00 73 1017.9
20260504214205 15 324 0.0 0.0 0.00 0.00 0.00 73 1017.9
20260504213704 15 321 0.0 0.0 0.00 0.00 0.00 73 1018.0
20260504213204 15 317 0.0 0.0 0.00 0.00 0.00 72 1018.0
20260504212704 15 319 0.0 0.0 0.00 0.00 0.00 72 1018.0
20260504211704 15 313 3.2 3.2 0.00 0.00 0.00 71 1018.1
20260504211204 15 333 3.2 3.2 0.00 0.00 0.00 71 1018.1
20260504210703 15 323 4.8 3.2 0.00 0.00 0.00 71 1018.1
20260504210203 15 313 4.8 12.9 0.00 0.00 0.00 71 1018.1
20260504204703 15 324 0.0 3.2 0.00 0.00 0.00 70 1018.1
20260504204203 15 320 0.0 3.2 0.00 0.00 0.00 70 1018.1
20260504203704 15 348 0.0 3.2 0.00 0.00 0.00 70 1018.2
20260504202202 15 329 0.0 3.2 0.00 0.00 0.00 71 1018.3
20260504201703 15 319 0.0 3.2 0.00 0.00 0.00 70 1018.3
20260504201203 14 313 0.0 3.2 0.00 0.00 0.00 71 1018.3
20260504200704 14 322 0.0 3.2 0.00 0.00 0.00 71 1018.2
20260504200203 14 318 0.0 3.2 0.00 0.00 0.00 71 1018.2
20260504195703 14 325 0.0 0.0 0.00 0.00 0.00 72 1018.2
20260504195203 14 322 0.0 3.2 0.00 0.00 0.00 72 1018.2
20260504194203 14 320 0.0 3.2 0.00 0.00 0.00 73 1018.2
20260504193703 14 321 0.0 3.2 0.00 0.00 0.00 73 1018.1
20260504193205 14 322 0.0 3.2 0.00 0.00 0.00 73 1018.0
20260504192704 14 324 0.0 3.2 0.00 0.00 0.00 74 1018.0
20260504191703 14 356 0.0 3.2 0.00 0.00 0.00 74 1018.0
20260504191203 14 324 0.0 3.2 0.00 0.00 0.00 74 1018.0
20260504190703 14 320 1.6 3.2 0.00 0.00 0.00 74 1017.9
20260504190203 14 320 1.6 3.2 0.00 0.00 0.00 74 1017.9
20260504185703 14 303 8.0 3.2 0.00 0.00 0.00 74 1017.9
20260504184704 14 313 4.8 14.5 0.00 0.00 0.00 73 1017.8
20260504184203 14 320 3.2 12.9 0.00 0.00 0.00 73 1017.8
20260504183703 14 316 3.2 12.9 0.00 0.00 0.00 75 1017.9
20260504183204 14 313 3.2 14.5 0.00 0.00 0.00 75 1017.9
20260504182703 15 344 3.2 8.0 0.00 0.00 0.00 77 1017.9
20260504182203 15 234 3.2 9.7 0.00 0.00 0.00 78 1018.0
20260504181703 15 312 0.0 19.3 0.00 0.00 0.00 79 1018.0